owner,sensor,date,latitude,longitude,relative_humidity,qcFlag 
DISL,ioos:station:DISL:PPTA:1,2013-11-01T00:00:00Z,30.2791,-87.5561,78.34,1111122 
DISL,ioos:station:DISL:PPTA:1,2013-11-01T00:30:00Z,30.2791,-87.5561,77.63,1111122 
DISL,ioos:station:DISL:PPTA:1,2013-11-01T01:00:00Z,30.2791,-87.5561,79.06,1111122 
DISL,ioos:station:DISL:PPTA:1,2013-11-01T01:30:00Z,30.2791,-87.5561,79.2,1111122 
DISL,ioos:station:DISL:PPTA:1,2013-11-01T02:00:00Z,30.2791,-87.5561,80.4,1111122 
DISL,ioos:station:DISL:PPTA:1,2013-11-01T02:30:00Z,30.2791,-87.5561,81.5,1111122 
DISL,ioos:station:DISL:PPTA:1,2013-11-01T03:00:00Z,30.2791,-87.5561,82.7,1111122 
DISL,ioos:station:DISL:PPTA:1,2013-11-01T03:30:00Z,30.2791,-87.5561,82.4,1111122 
DISL,ioos:station:DISL:PPTA:1,2013-11-01T04:00:00Z,30.2791,-87.5561,84.0,1111122 
DISL,ioos:station:DISL:PPTA:1,2013-11-01T04:30:00Z,30.2791,-87.5561,83.3,1111122 
DISL,ioos:station:DISL:PPTA:1,2013-11-01T05:00:00Z,30.2791,-87.5561,83.4,1111122 
DISL,ioos:station:DISL:PPTA:1,2013-11-01T05:30:00Z,30.2791,-87.5561,84.1,1111122 
DISL,ioos:station:DISL:PPTA:1,2013-11-01T06:00:00Z,30.2791,-87.5561,85.9,1111122 
DISL,ioos:station:DISL:PPTA:1,2013-11-01T06:30:00Z,30.2791,-87.5561,87.1,1111122 
DISL,ioos:station:DISL:PPTA:1,2013-11-01T07:00:00Z,30.2791,-87.5561,88.2,1111122 
DISL,ioos:station:DISL:PPTA:1,2013-11-01T07:30:00Z,30.2791,-87.5561,89.3,1111122 
DISL,ioos:station:DISL:PPTA:1,2013-11-01T08:00:00Z,30.2791,-87.5561,89.2,1111122 
DISL,ioos:station:DISL:PPTA:1,2013-11-01T08:30:00Z,30.2791,-87.5561,88.6,1111122 
DISL,ioos:station:DISL:PPTA:1,2013-11-01T09:00:00Z,30.2791,-87.5561,89.3,1111122 
DISL,ioos:station:DISL:PPTA:1,2013-11-01T09:30:00Z,30.2791,-87.5561,88.9,1111122 
DISL,ioos:station:DISL:PPTA:1,2013-11-01T10:00:00Z,30.2791,-87.5561,89.0,1111122 
DISL,ioos:station:DISL:PPTA:1,2013-11-01T10:30:00Z,30.2791,-87.5561,88.6,1111122 
DISL,ioos:station:DISL:PPTA:1,2013-11-01T11:00:00Z,30.2791,-87.5561,89.5,1111122 
DISL,ioos:station:DISL:PPTA:1,2013-11-01T11:30:00Z,30.2791,-87.5561,88.4,1111122 
DISL,ioos:station:DISL:PPTA:1,2013-11-01T12:00:00Z,30.2791,-87.5561,88.3,1111122 
DISL,ioos:station:DISL:PPTA:1,2013-11-01T12:30:00Z,30.2791,-87.5561,91.0,1111122 
DISL,ioos:station:DISL:PPTA:1,2013-11-01T13:00:00Z,30.2791,-87.5561,92.0,1111122 
DISL,ioos:station:DISL:PPTA:1,2013-11-01T13:30:00Z,30.2791,-87.5561,91.5,1111122 
DISL,ioos:station:DISL:PPTA:1,2013-11-01T14:00:00Z,30.2791,-87.5561,91.8,1111122 
DISL,ioos:station:DISL:PPTA:1,2013-11-01T14:30:00Z,30.2791,-87.5561,92.2,1111122 
DISL,ioos:station:DISL:PPTA:1,2013-11-01T15:00:00Z,30.2791,-87.5561,92.8,1111122 
DISL,ioos:station:DISL:PPTA:1,2013-11-01T15:30:00Z,30.2791,-87.5561,93.1,1111122 
DISL,ioos:station:DISL:PPTA:1,2013-11-01T16:00:00Z,30.2791,-87.5561,87.6,1111122 
DISL,ioos:station:DISL:PPTA:1,2013-11-01T16:30:00Z,30.2791,-87.5561,84.0,1111122 
DISL,ioos:station:DISL:PPTA:1,2013-11-01T17:00:00Z,30.2791,-87.5561,82.3,1111122 
DISL,ioos:station:DISL:PPTA:1,2013-11-01T17:30:00Z,30.2791,-87.5561,84.4,1111122 
DISL,ioos:station:DISL:PPTA:1,2013-11-01T18:00:00Z,30.2791,-87.5561,80.3,1111122 
DISL,ioos:station:DISL:PPTA:1,2013-11-01T18:30:00Z,30.2791,-87.5561,85.0,1111122 
DISL,ioos:station:DISL:PPTA:1,2013-11-01T19:00:00Z,30.2791,-87.5561,91.1,1111122 
DISL,ioos:station:DISL:PPTA:1,2013-11-01T19:30:00Z,30.2791,-87.5561,92.8,1111122 
DISL,ioos:station:DISL:PPTA:1,2013-11-01T20:00:00Z,30.2791,-87.5561,92.7,1111122 
DISL,ioos:station:DISL:PPTA:1,2013-11-01T20:30:00Z,30.2791,-87.5561,92.2,1111122 
DISL,ioos:station:DISL:PPTA:1,2013-11-01T21:00:00Z,30.2791,-87.5561,90.4,1111122 
DISL,ioos:station:DISL:PPTA:1,2013-11-01T21:30:00Z,30.2791,-87.5561,84.7,1111122 
DISL,ioos:station:DISL:PPTA:1,2013-11-01T22:00:00Z,30.2791,-87.5561,84.5,1111122 
DISL,ioos:station:DISL:PPTA:1,2013-11-01T22:30:00Z,30.2791,-87.5561,83.0,1111122 
DISL,ioos:station:DISL:PPTA:1,2013-11-01T23:00:00Z,30.2791,-87.5561,85.6,1111122 
DISL,ioos:station:DISL:PPTA:1,2013-11-01T23:30:00Z,30.2791,-87.5561,88.0,1111122 
DISL,ioos:station:DISL:PPTA:1,2013-11-02T00:00:00Z,30.2791,-87.5561,89.6,1111122 
DISL,ioos:station:DISL:PPTA:1,2013-11-02T00:30:00Z,30.2791,-87.5561,90.1,1111122 
DISL,ioos:station:DISL:PPTA:1,2013-11-02T01:00:00Z,30.2791,-87.5561,90.6,1111122 
DISL,ioos:station:DISL:PPTA:1,2013-11-02T01:30:00Z,30.2791,-87.5561,90.7,1111122 
DISL,ioos:station:DISL:PPTA:1,2013-11-02T02:00:00Z,30.2791,-87.5561,91.0,1111122 
DISL,ioos:station:DISL:PPTA:1,2013-11-02T02:30:00Z,30.2791,-87.5561,90.3,1111122 
DISL,ioos:station:DISL:PPTA:1,2013-11-02T03:00:00Z,30.2791,-87.5561,89.5,1111122 
DISL,ioos:station:DISL:PPTA:1,2013-11-02T03:30:00Z,30.2791,-87.5561,87.6,1111122 
DISL,ioos:station:DISL:PPTA:1,2013-11-02T04:00:00Z,30.2791,-87.5561,81.5,1111122 
DISL,ioos:station:DISL:PPTA:1,2013-11-02T04:30:00Z,30.2791,-87.5561,77.26,1111122 
DISL,ioos:station:DISL:PPTA:1,2013-11-02T05:00:00Z,30.2791,-87.5561,70.91,1111122 
DISL,ioos:station:DISL:PPTA:1,2013-11-02T05:30:00Z,30.2791,-87.5561,67.14,1111122 
DISL,ioos:station:DISL:PPTA:1,2013-11-02T06:00:00Z,30.2791,-87.5561,67.73,1111122 
DISL,ioos:station:DISL:PPTA:1,2013-11-02T06:30:00Z,30.2791,-87.5561,71.0,1111122 
DISL,ioos:station:DISL:PPTA:1,2013-11-02T07:00:00Z,30.2791,-87.5561,68.0,1111122 
DISL,ioos:station:DISL:PPTA:1,2013-11-02T07:30:00Z,30.2791,-87.5561,69.2,1111122 
DISL,ioos:station:DISL:PPTA:1,2013-11-02T08:00:00Z,30.2791,-87.5561,70.47,1111122 
DISL,ioos:station:DISL:PPTA:1,2013-11-02T08:30:00Z,30.2791,-87.5561,71.64,1111122 
DISL,ioos:station:DISL:PPTA:1,2013-11-02T09:00:00Z,30.2791,-87.5561,72.7,1111122 
DISL,ioos:station:DISL:PPTA:1,2013-11-02T09:30:00Z,30.2791,-87.5561,72.29,1111122 
DISL,ioos:station:DISL:PPTA:1,2013-11-02T10:00:00Z,30.2791,-87.5561,72.91,1111122 
DISL,ioos:station:DISL:PPTA:1,2013-11-02T10:30:00Z,30.2791,-87.5561,74.14,1111122 
DISL,ioos:station:DISL:PPTA:1,2013-11-02T11:00:00Z,30.2791,-87.5561,76.39,1111122 
DISL,ioos:station:DISL:PPTA:1,2013-11-02T11:30:00Z,30.2791,-87.5561,73.77,1111122 
DISL,ioos:station:DISL:PPTA:1,2013-11-02T12:00:00Z,30.2791,-87.5561,75.24,1111122 
DISL,ioos:station:DISL:PPTA:1,2013-11-02T12:30:00Z,30.2791,-87.5561,75.59,1111122 
DISL,ioos:station:DISL:PPTA:1,2013-11-02T13:00:00Z,30.2791,-87.5561,69.3,1111122 
DISL,ioos:station:DISL:PPTA:1,2013-11-02T13:30:00Z,30.2791,-87.5561,68.67,1111122 
DISL,ioos:station:DISL:PPTA:1,2013-11-02T14:00:00Z,30.2791,-87.5561,70.6,1111122 
DISL,ioos:station:DISL:PPTA:1,2013-11-02T14:30:00Z,30.2791,-87.5561,68.68,1111122 
DISL,ioos:station:DISL:PPTA:1,2013-11-02T15:00:00Z,30.2791,-87.5561,68.72,1111122 
DISL,ioos:station:DISL:PPTA:1,2013-11-02T15:30:00Z,30.2791,-87.5561,62.08,1111122 
DISL,ioos:station:DISL:PPTA:1,2013-11-02T16:00:00Z,30.2791,-87.5561,51.98,1111122 
DISL,ioos:station:DISL:PPTA:1,2013-11-02T16:30:00Z,30.2791,-87.5561,51.73,1111122 
DISL,ioos:station:DISL:PPTA:1,2013-11-02T17:00:00Z,30.2791,-87.5561,50.18,1111122 
DISL,ioos:station:DISL:PPTA:1,2013-11-02T17:30:00Z,30.2791,-87.5561,44.75,1111122 
DISL,ioos:station:DISL:PPTA:1,2013-11-02T18:00:00Z,30.2791,-87.5561,37.69,1111122 
DISL,ioos:station:DISL:PPTA:1,2013-11-02T18:30:00Z,30.2791,-87.5561,34.48,1111122 
DISL,ioos:station:DISL:PPTA:1,2013-11-02T19:00:00Z,30.2791,-87.5561,31.48,1111122 
DISL,ioos:station:DISL:PPTA:1,2013-11-02T19:30:00Z,30.2791,-87.5561,31.34,1111122 
DISL,ioos:station:DISL:PPTA:1,2013-11-02T20:00:00Z,30.2791,-87.5561,31.11,1111122 
DISL,ioos:station:DISL:PPTA:1,2013-11-02T20:30:00Z,30.2791,-87.5561,30.67,1111122 
DISL,ioos:station:DISL:PPTA:1,2013-11-02T21:00:00Z,30.2791,-87.5561,34.45,1111122 
DISL,ioos:station:DISL:PPTA:1,2013-11-02T21:30:00Z,30.2791,-87.5561,36.91,1111122 
DISL,ioos:station:DISL:PPTA:1,2013-11-02T22:00:00Z,30.2791,-87.5561,41.21,1111122 
DISL,ioos:station:DISL:PPTA:1,2013-11-02T22:30:00Z,30.2791,-87.5561,44.39,1111122 
DISL,ioos:station:DISL:PPTA:1,2013-11-02T23:00:00Z,30.2791,-87.5561,48.14,1111122 
DISL,ioos:station:DISL:PPTA:1,2013-11-02T23:30:00Z,30.2791,-87.5561,52.25,1111122 
DISL,ioos:station:DISL:PPTA:1,2013-11-03T00:00:00Z,30.2791,-87.5561,50.75,1111122 
DISL,ioos:station:DISL:PPTA:1,2013-11-03T00:30:00Z,30.2791,-87.5561,51.47,1111122 
DISL,ioos:station:DISL:PPTA:1,2013-11-03T01:00:00Z,30.2791,-87.5561,50.25,1111122 
DISL,ioos:station:DISL:PPTA:1,2013-11-03T01:30:00Z,30.2791,-87.5561,47.73,1111122 
DISL,ioos:station:DISL:PPTA:1,2013-11-03T02:00:00Z,30.2791,-87.5561,52.79,1111122 
DISL,ioos:station:DISL:PPTA:1,2013-11-03T02:30:00Z,30.2791,-87.5561,53.86,1111122 
DISL,ioos:station:DISL:PPTA:1,2013-11-03T03:00:00Z,30.2791,-87.5561,53.38,1111122 
DISL,ioos:station:DISL:PPTA:1,2013-11-03T03:30:00Z,30.2791,-87.5561,53.35,1111122 
DISL,ioos:station:DISL:PPTA:1,2013-11-03T04:00:00Z,30.2791,-87.5561,54.11,1111122 
DISL,ioos:station:DISL:PPTA:1,2013-11-03T04:30:00Z,30.2791,-87.5561,57.84,1111122 
DISL,ioos:station:DISL:PPTA:1,2013-11-03T05:00:00Z,30.2791,-87.5561,56.75,1111122 
DISL,ioos:station:DISL:PPTA:1,2013-11-03T05:30:00Z,30.2791,-87.5561,58.93,1111122 
DISL,ioos:station:DISL:PPTA:1,2013-11-03T06:00:00Z,30.2791,-87.5561,59.83,1111122 
DISL,ioos:station:DISL:PPTA:1,2013-11-03T06:30:00Z,30.2791,-87.5561,61.47,1111122 
DISL,ioos:station:DISL:PPTA:1,2013-11-03T07:00:00Z,30.2791,-87.5561,67.91,1111122 
DISL,ioos:station:DISL:PPTA:1,2013-11-03T07:30:00Z,30.2791,-87.5561,67.77,1111122 
DISL,ioos:station:DISL:PPTA:1,2013-11-03T08:00:00Z,30.2791,-87.5561,72.09,1111122 
DISL,ioos:station:DISL:PPTA:1,2013-11-03T08:30:00Z,30.2791,-87.5561,70.38,1111122 
DISL,ioos:station:DISL:PPTA:1,2013-11-03T09:00:00Z,30.2791,-87.5561,72.34,1111122 
DISL,ioos:station:DISL:PPTA:1,2013-11-03T09:30:00Z,30.2791,-87.5561,76.72,1111122 
DISL,ioos:station:DISL:PPTA:1,2013-11-03T10:00:00Z,30.2791,-87.5561,74.74,1111122 
DISL,ioos:station:DISL:PPTA:1,2013-11-03T10:30:00Z,30.2791,-87.5561,72.93,1111122 
DISL,ioos:station:DISL:PPTA:1,2013-11-03T11:00:00Z,30.2791,-87.5561,76.8,1111122 
DISL,ioos:station:DISL:PPTA:1,2013-11-03T11:30:00Z,30.2791,-87.5561,76.16,1111122 
DISL,ioos:station:DISL:PPTA:1,2013-11-03T12:00:00Z,30.2791,-87.5561,75.75,1111122 
DISL,ioos:station:DISL:PPTA:1,2013-11-03T12:30:00Z,30.2791,-87.5561,79.04,1111122 
DISL,ioos:station:DISL:PPTA:1,2013-11-03T13:00:00Z,30.2791,-87.5561,75.65,1111122 
DISL,ioos:station:DISL:PPTA:1,2013-11-03T13:30:00Z,30.2791,-87.5561,73.41,1111122 
DISL,ioos:station:DISL:PPTA:1,2013-11-03T14:00:00Z,30.2791,-87.5561,70.91,1111122 
DISL,ioos:station:DISL:PPTA:1,2013-11-03T14:30:00Z,30.2791,-87.5561,69.93,1111122 
DISL,ioos:station:DISL:PPTA:1,2013-11-03T15:00:00Z,30.2791,-87.5561,66.7,1111122 
DISL,ioos:station:DISL:PPTA:1,2013-11-03T15:30:00Z,30.2791,-87.5561,61.46,1111122 
DISL,ioos:station:DISL:PPTA:1,2013-11-03T16:00:00Z,30.2791,-87.5561,59.6,1111122 
DISL,ioos:station:DISL:PPTA:1,2013-11-03T16:30:00Z,30.2791,-87.5561,53.62,1111122 
DISL,ioos:station:DISL:PPTA:1,2013-11-03T17:00:00Z,30.2791,-87.5561,50.29,1111122 
DISL,ioos:station:DISL:PPTA:1,2013-11-03T17:30:00Z,30.2791,-87.5561,46.19,1111122 
DISL,ioos:station:DISL:PPTA:1,2013-11-03T18:00:00Z,30.2791,-87.5561,42.81,1111122 
DISL,ioos:station:DISL:PPTA:1,2013-11-03T18:30:00Z,30.2791,-87.5561,44.65,1111122 
DISL,ioos:station:DISL:PPTA:1,2013-11-03T19:00:00Z,30.2791,-87.5561,37.89,1111122 
DISL,ioos:station:DISL:PPTA:1,2013-11-03T19:30:00Z,30.2791,-87.5561,37.73,1111122 
DISL,ioos:station:DISL:PPTA:1,2013-11-03T20:00:00Z,30.2791,-87.5561,33.8,1111122 
DISL,ioos:station:DISL:PPTA:1,2013-11-03T20:30:00Z,30.2791,-87.5561,33.6,1111122 
DISL,ioos:station:DISL:PPTA:1,2013-11-03T21:00:00Z,30.2791,-87.5561,32.81,1111122 
DISL,ioos:station:DISL:PPTA:1,2013-11-03T21:30:00Z,30.2791,-87.5561,30.28,1111122 
DISL,ioos:station:DISL:PPTA:1,2013-11-03T22:00:00Z,30.2791,-87.5561,33.77,1111122 
DISL,ioos:station:DISL:PPTA:1,2013-11-03T22:30:00Z,30.2791,-87.5561,39.84,1111122 
DISL,ioos:station:DISL:PPTA:1,2013-11-03T23:00:00Z,30.2791,-87.5561,43.64,1111122 
DISL,ioos:station:DISL:PPTA:1,2013-11-03T23:30:00Z,30.2791,-87.5561,40.81,1111122 
DISL,ioos:station:DISL:PPTA:1,2013-11-04T00:00:00Z,30.2791,-87.5561,39.86,1111122 
DISL,ioos:station:DISL:PPTA:1,2013-11-04T00:30:00Z,30.2791,-87.5561,47.3,1111122 
DISL,ioos:station:DISL:PPTA:1,2013-11-04T01:00:00Z,30.2791,-87.5561,50.48,1111122 
DISL,ioos:station:DISL:PPTA:1,2013-11-04T01:30:00Z,30.2791,-87.5561,55.84,1111122 
DISL,ioos:station:DISL:PPTA:1,2013-11-04T02:00:00Z,30.2791,-87.5561,54.37,1111122 
DISL,ioos:station:DISL:PPTA:1,2013-11-04T02:30:00Z,30.2791,-87.5561,54.13,1111122 
DISL,ioos:station:DISL:PPTA:1,2013-11-04T03:00:00Z,30.2791,-87.5561,60.45,1111122 
DISL,ioos:station:DISL:PPTA:1,2013-11-04T03:30:00Z,30.2791,-87.5561,59.63,1111122 
DISL,ioos:station:DISL:PPTA:1,2013-11-04T04:00:00Z,30.2791,-87.5561,61.65,1111122 
DISL,ioos:station:DISL:PPTA:1,2013-11-04T04:30:00Z,30.2791,-87.5561,63.5,1111122 
DISL,ioos:station:DISL:PPTA:1,2013-11-04T05:00:00Z,30.2791,-87.5561,62.42,1111122 
DISL,ioos:station:DISL:PPTA:1,2013-11-04T05:30:00Z,30.2791,-87.5561,66.04,1111122 
DISL,ioos:station:DISL:PPTA:1,2013-11-04T06:00:00Z,30.2791,-87.5561,60.47,1111122 
DISL,ioos:station:DISL:PPTA:1,2013-11-04T06:30:00Z,30.2791,-87.5561,60.67,1111122 
DISL,ioos:station:DISL:PPTA:1,2013-11-04T07:00:00Z,30.2791,-87.5561,62.27,1111122 
DISL,ioos:station:DISL:PPTA:1,2013-11-04T07:30:00Z,30.2791,-87.5561,64.65,1111122 
DISL,ioos:station:DISL:PPTA:1,2013-11-04T08:00:00Z,30.2791,-87.5561,64.89,1111122 
DISL,ioos:station:DISL:PPTA:1,2013-11-04T08:30:00Z,30.2791,-87.5561,63.56,1111122 
DISL,ioos:station:DISL:PPTA:1,2013-11-04T09:00:00Z,30.2791,-87.5561,66.57,1111122 
DISL,ioos:station:DISL:PPTA:1,2013-11-04T09:30:00Z,30.2791,-87.5561,68.93,1111122 
DISL,ioos:station:DISL:PPTA:1,2013-11-04T10:00:00Z,30.2791,-87.5561,56.6,1111122 
DISL,ioos:station:DISL:PPTA:1,2013-11-04T10:30:00Z,30.2791,-87.5561,64.96,1111122 
DISL,ioos:station:DISL:PPTA:1,2013-11-04T11:00:00Z,30.2791,-87.5561,58.78,1111122 
DISL,ioos:station:DISL:PPTA:1,2013-11-04T11:30:00Z,30.2791,-87.5561,72.44,1111122 
DISL,ioos:station:DISL:PPTA:1,2013-11-04T12:00:00Z,30.2791,-87.5561,62.88,1111122 
DISL,ioos:station:DISL:PPTA:1,2013-11-04T12:30:00Z,30.2791,-87.5561,59.32,1111122 
DISL,ioos:station:DISL:PPTA:1,2013-11-04T13:00:00Z,30.2791,-87.5561,55.36,1111122 
DISL,ioos:station:DISL:PPTA:1,2013-11-04T13:30:00Z,30.2791,-87.5561,56.44,1111122 
DISL,ioos:station:DISL:PPTA:1,2013-11-04T14:00:00Z,30.2791,-87.5561,67.67,1111122 
DISL,ioos:station:DISL:PPTA:1,2013-11-04T14:30:00Z,30.2791,-87.5561,66.05,1111122 
DISL,ioos:station:DISL:PPTA:1,2013-11-04T15:00:00Z,30.2791,-87.5561,65.12,1111122 
DISL,ioos:station:DISL:PPTA:1,2013-11-04T15:30:00Z,30.2791,-87.5561,66.24,1111122 
DISL,ioos:station:DISL:PPTA:1,2013-11-04T16:00:00Z,30.2791,-87.5561,65.24,1111122 
DISL,ioos:station:DISL:PPTA:1,2013-11-04T16:30:00Z,30.2791,-87.5561,65.38,1111122 
DISL,ioos:station:DISL:PPTA:1,2013-11-04T17:00:00Z,30.2791,-87.5561,66.54,1111122 
DISL,ioos:station:DISL:PPTA:1,2013-11-04T17:30:00Z,30.2791,-87.5561,65.18,1111122 
DISL,ioos:station:DISL:PPTA:1,2013-11-04T18:00:00Z,30.2791,-87.5561,64.04,1111122 
DISL,ioos:station:DISL:PPTA:1,2013-11-04T18:30:00Z,30.2791,-87.5561,60.68,1111122 
DISL,ioos:station:DISL:PPTA:1,2013-11-04T19:00:00Z,30.2791,-87.5561,63.21,1111122 
DISL,ioos:station:DISL:PPTA:1,2013-11-04T19:30:00Z,30.2791,-87.5561,61.5,1111122 
DISL,ioos:station:DISL:PPTA:1,2013-11-04T20:00:00Z,30.2791,-87.5561,63.41,1111122 
DISL,ioos:station:DISL:PPTA:1,2013-11-04T20:30:00Z,30.2791,-87.5561,62.15,1111122 
DISL,ioos:station:DISL:PPTA:1,2013-11-04T21:00:00Z,30.2791,-87.5561,58.94,1111122 
DISL,ioos:station:DISL:PPTA:1,2013-11-04T21:30:00Z,30.2791,-87.5561,56.52,1111122 
DISL,ioos:station:DISL:PPTA:1,2013-11-04T22:00:00Z,30.2791,-87.5561,54.37,1111122 
DISL,ioos:station:DISL:PPTA:1,2013-11-04T22:30:00Z,30.2791,-87.5561,56.35,1111122 
DISL,ioos:station:DISL:PPTA:1,2013-11-04T23:00:00Z,30.2791,-87.5561,56.72,1111122 
DISL,ioos:station:DISL:PPTA:1,2013-11-04T23:30:00Z,30.2791,-87.5561,62.39,1111122 
DISL,ioos:station:DISL:PPTA:1,2013-11-05T00:00:00Z,30.2791,-87.5561,60.51,1111122 
DISL,ioos:station:DISL:PPTA:1,2013-11-05T00:30:00Z,30.2791,-87.5561,63.72,1111122 
DISL,ioos:station:DISL:PPTA:1,2013-11-05T01:00:00Z,30.2791,-87.5561,63.45,1111122 
DISL,ioos:station:DISL:PPTA:1,2013-11-05T01:30:00Z,30.2791,-87.5561,64.57,1111122 
DISL,ioos:station:DISL:PPTA:1,2013-11-05T02:00:00Z,30.2791,-87.5561,65.71,1111122 
DISL,ioos:station:DISL:PPTA:1,2013-11-05T02:30:00Z,30.2791,-87.5561,65.4,1111122 
DISL,ioos:station:DISL:PPTA:1,2013-11-05T03:00:00Z,30.2791,-87.5561,67.62,1111122 
DISL,ioos:station:DISL:PPTA:1,2013-11-05T03:30:00Z,30.2791,-87.5561,66.86,1111122 
DISL,ioos:station:DISL:PPTA:1,2013-11-05T04:00:00Z,30.2791,-87.5561,65.61,1111122 
DISL,ioos:station:DISL:PPTA:1,2013-11-05T04:30:00Z,30.2791,-87.5561,68.1,1111122 
DISL,ioos:station:DISL:PPTA:1,2013-11-05T05:00:00Z,30.2791,-87.5561,71.21,1111122 
DISL,ioos:station:DISL:PPTA:1,2013-11-05T05:30:00Z,30.2791,-87.5561,70.26,1111122 
DISL,ioos:station:DISL:PPTA:1,2013-11-05T06:00:00Z,30.2791,-87.5561,71.72,1111122 
DISL,ioos:station:DISL:PPTA:1,2013-11-05T06:30:00Z,30.2791,-87.5561,70.76,1111122 
DISL,ioos:station:DISL:PPTA:1,2013-11-05T07:00:00Z,30.2791,-87.5561,72.74,1111122 
DISL,ioos:station:DISL:PPTA:1,2013-11-05T07:30:00Z,30.2791,-87.5561,72.37,1111122 
DISL,ioos:station:DISL:PPTA:1,2013-11-05T08:00:00Z,30.2791,-87.5561,75.17,1111122 
DISL,ioos:station:DISL:PPTA:1,2013-11-05T08:30:00Z,30.2791,-87.5561,73.33,1111122 
DISL,ioos:station:DISL:PPTA:1,2013-11-05T09:00:00Z,30.2791,-87.5561,73.54,1111122 
DISL,ioos:station:DISL:PPTA:1,2013-11-05T09:30:00Z,30.2791,-87.5561,70.4,1111122 
DISL,ioos:station:DISL:PPTA:1,2013-11-05T10:00:00Z,30.2791,-87.5561,71.72,1111122 
DISL,ioos:station:DISL:PPTA:1,2013-11-05T10:30:00Z,30.2791,-87.5561,71.76,1111122 
DISL,ioos:station:DISL:PPTA:1,2013-11-05T11:00:00Z,30.2791,-87.5561,71.38,1111122 
DISL,ioos:station:DISL:PPTA:1,2013-11-05T11:30:00Z,30.2791,-87.5561,71.18,1111122 
DISL,ioos:station:DISL:PPTA:1,2013-11-05T12:00:00Z,30.2791,-87.5561,68.89,1111122 
DISL,ioos:station:DISL:PPTA:1,2013-11-05T12:30:00Z,30.2791,-87.5561,70.16,1111122 
DISL,ioos:station:DISL:PPTA:1,2013-11-05T13:00:00Z,30.2791,-87.5561,69.27,1111122 
DISL,ioos:station:DISL:PPTA:1,2013-11-05T13:30:00Z,30.2791,-87.5561,68.75,1111122 
DISL,ioos:station:DISL:PPTA:1,2013-11-05T14:00:00Z,30.2791,-87.5561,69.26,1111122 
DISL,ioos:station:DISL:PPTA:1,2013-11-05T14:30:00Z,30.2791,-87.5561,71.74,1111122 
DISL,ioos:station:DISL:PPTA:1,2013-11-05T15:00:00Z,30.2791,-87.5561,72.04,1111122 
DISL,ioos:station:DISL:PPTA:1,2013-11-05T15:30:00Z,30.2791,-87.5561,72.93,1111122 
DISL,ioos:station:DISL:PPTA:1,2013-11-05T16:00:00Z,30.2791,-87.5561,74.6,1111122 
DISL,ioos:station:DISL:PPTA:1,2013-11-05T16:30:00Z,30.2791,-87.5561,72.21,1111122 
DISL,ioos:station:DISL:PPTA:1,2013-11-05T17:00:00Z,30.2791,-87.5561,73.2,1111122 
DISL,ioos:station:DISL:PPTA:1,2013-11-05T17:30:00Z,30.2791,-87.5561,70.9,1111122 
DISL,ioos:station:DISL:PPTA:1,2013-11-05T18:00:00Z,30.2791,-87.5561,70.0,1111122 
DISL,ioos:station:DISL:PPTA:1,2013-11-05T18:30:00Z,30.2791,-87.5561,69.08,1111122 
DISL,ioos:station:DISL:PPTA:1,2013-11-05T19:00:00Z,30.2791,-87.5561,68.5,1111122 
DISL,ioos:station:DISL:PPTA:1,2013-11-05T19:30:00Z,30.2791,-87.5561,68.29,1111122 
DISL,ioos:station:DISL:PPTA:1,2013-11-05T20:00:00Z,30.2791,-87.5561,67.68,1111122 
DISL,ioos:station:DISL:PPTA:1,2013-11-05T20:30:00Z,30.2791,-87.5561,66.89,1111122 
DISL,ioos:station:DISL:PPTA:1,2013-11-05T21:00:00Z,30.2791,-87.5561,65.7,1111122 
DISL,ioos:station:DISL:PPTA:1,2013-11-05T21:30:00Z,30.2791,-87.5561,67.0,1111122 
DISL,ioos:station:DISL:PPTA:1,2013-11-05T22:00:00Z,30.2791,-87.5561,68.33,1111122 
DISL,ioos:station:DISL:PPTA:1,2013-11-05T22:30:00Z,30.2791,-87.5561,67.78,1111122 
DISL,ioos:station:DISL:PPTA:1,2013-11-05T23:00:00Z,30.2791,-87.5561,69.73,1111122 
DISL,ioos:station:DISL:PPTA:1,2013-11-05T23:30:00Z,30.2791,-87.5561,74.54,1111122 
DISL,ioos:station:DISL:PPTA:1,2013-11-06T00:00:00Z,30.2791,-87.5561,71.19,1111122 
DISL,ioos:station:DISL:PPTA:1,2013-11-06T00:30:00Z,30.2791,-87.5561,68.19,1111122 
DISL,ioos:station:DISL:PPTA:1,2013-11-06T01:00:00Z,30.2791,-87.5561,68.36,1111122 
DISL,ioos:station:DISL:PPTA:1,2013-11-06T01:30:00Z,30.2791,-87.5561,66.93,1111122 
DISL,ioos:station:DISL:PPTA:1,2013-11-06T02:00:00Z,30.2791,-87.5561,63.72,1111122 
DISL,ioos:station:DISL:PPTA:1,2013-11-06T02:30:00Z,30.2791,-87.5561,63.58,1111122 
DISL,ioos:station:DISL:PPTA:1,2013-11-06T03:00:00Z,30.2791,-87.5561,65.09,1111122 
DISL,ioos:station:DISL:PPTA:1,2013-11-06T03:30:00Z,30.2791,-87.5561,64.71,1111122 
DISL,ioos:station:DISL:PPTA:1,2013-11-06T04:00:00Z,30.2791,-87.5561,66.08,1111122 
DISL,ioos:station:DISL:PPTA:1,2013-11-06T04:30:00Z,30.2791,-87.5561,65.3,1111122 
DISL,ioos:station:DISL:PPTA:1,2013-11-06T05:00:00Z,30.2791,-87.5561,68.71,1111122 
DISL,ioos:station:DISL:PPTA:1,2013-11-06T05:30:00Z,30.2791,-87.5561,68.24,1111122 
DISL,ioos:station:DISL:PPTA:1,2013-11-06T06:00:00Z,30.2791,-87.5561,68.97,1111122 
DISL,ioos:station:DISL:PPTA:1,2013-11-06T06:30:00Z,30.2791,-87.5561,71.42,1111122 
DISL,ioos:station:DISL:PPTA:1,2013-11-06T07:00:00Z,30.2791,-87.5561,71.66,1111122 
DISL,ioos:station:DISL:PPTA:1,2013-11-06T07:30:00Z,30.2791,-87.5561,73.37,1111122 
DISL,ioos:station:DISL:PPTA:1,2013-11-06T08:00:00Z,30.2791,-87.5561,74.56,1111122 
DISL,ioos:station:DISL:PPTA:1,2013-11-06T08:30:00Z,30.2791,-87.5561,76.24,1111122 
DISL,ioos:station:DISL:PPTA:1,2013-11-06T09:00:00Z,30.2791,-87.5561,76.72,1111122 
DISL,ioos:station:DISL:PPTA:1,2013-11-06T09:30:00Z,30.2791,-87.5561,76.41,1111122 
DISL,ioos:station:DISL:PPTA:1,2013-11-06T10:00:00Z,30.2791,-87.5561,77.84,1111122 
DISL,ioos:station:DISL:PPTA:1,2013-11-06T10:30:00Z,30.2791,-87.5561,78.49,1111122 
DISL,ioos:station:DISL:PPTA:1,2013-11-06T11:00:00Z,30.2791,-87.5561,79.14,1111122 
DISL,ioos:station:DISL:PPTA:1,2013-11-06T11:30:00Z,30.2791,-87.5561,78.32,1111122 
DISL,ioos:station:DISL:PPTA:1,2013-11-06T12:00:00Z,30.2791,-87.5561,80.3,1111122 
DISL,ioos:station:DISL:PPTA:1,2013-11-06T12:30:00Z,30.2791,-87.5561,81.5,1111122 
DISL,ioos:station:DISL:PPTA:1,2013-11-06T13:00:00Z,30.2791,-87.5561,81.8,1111122 
DISL,ioos:station:DISL:PPTA:1,2013-11-06T13:30:00Z,30.2791,-87.5561,82.9,1111122 
DISL,ioos:station:DISL:PPTA:1,2013-11-06T14:00:00Z,30.2791,-87.5561,83.3,1111122 
DISL,ioos:station:DISL:PPTA:1,2013-11-06T14:30:00Z,30.2791,-87.5561,83.9,1111122 
DISL,ioos:station:DISL:PPTA:1,2013-11-06T15:00:00Z,30.2791,-87.5561,83.3,1111122 
DISL,ioos:station:DISL:PPTA:1,2013-11-06T15:30:00Z,30.2791,-87.5561,83.0,1111122 
DISL,ioos:station:DISL:PPTA:1,2013-11-06T16:00:00Z,30.2791,-87.5561,83.0,1111122 
DISL,ioos:station:DISL:PPTA:1,2013-11-06T16:30:00Z,30.2791,-87.5561,84.0,1111122 
DISL,ioos:station:DISL:PPTA:1,2013-11-06T17:00:00Z,30.2791,-87.5561,84.1,1111122 
DISL,ioos:station:DISL:PPTA:1,2013-11-06T17:30:00Z,30.2791,-87.5561,84.7,1111122 
DISL,ioos:station:DISL:PPTA:1,2013-11-06T18:00:00Z,30.2791,-87.5561,84.1,1111122 
DISL,ioos:station:DISL:PPTA:1,2013-11-06T18:30:00Z,30.2791,-87.5561,84.1,1111122 
DISL,ioos:station:DISL:PPTA:1,2013-11-06T19:00:00Z,30.2791,-87.5561,83.2,1111122 
DISL,ioos:station:DISL:PPTA:1,2013-11-06T19:30:00Z,30.2791,-87.5561,81.7,1111122 
DISL,ioos:station:DISL:PPTA:1,2013-11-06T20:00:00Z,30.2791,-87.5561,80.7,1111122 
DISL,ioos:station:DISL:PPTA:1,2013-11-06T20:30:00Z,30.2791,-87.5561,81.0,1111122 
DISL,ioos:station:DISL:PPTA:1,2013-11-06T21:00:00Z,30.2791,-87.5561,81.1,1111122 
DISL,ioos:station:DISL:PPTA:1,2013-11-06T21:30:00Z,30.2791,-87.5561,80.0,1111122 
DISL,ioos:station:DISL:PPTA:1,2013-11-06T22:00:00Z,30.2791,-87.5561,83.9,1111122 
DISL,ioos:station:DISL:PPTA:1,2013-11-06T22:30:00Z,30.2791,-87.5561,84.3,1111122 
DISL,ioos:station:DISL:PPTA:1,2013-11-06T23:00:00Z,30.2791,-87.5561,84.4,1111122 
DISL,ioos:station:DISL:PPTA:1,2013-11-06T23:30:00Z,30.2791,-87.5561,85.5,1111122 
DISL,ioos:station:DISL:PPTA:1,2013-11-07T00:00:00Z,30.2791,-87.5561,86.8,1111122 